Regional Weather Roundup
Issued by NWS Newport/Morehead, NC

Current Version | Previous Version | Graphics & Text | Print | Product List | Glossary On
Versions: 1 2 3 4 5 6 7 8 9 10 11 12 13 14 15 16 17 18 19 20 21 22 23 24 25 26 27 28 29 30 31 32 33 34 35 36 37 38 39 40 41 42 43 44 45 46 47 48 49 50
000 ASUS42 KMHX 300313 RWRMHX WEATHER ROUNDUP FOR EASTERN NORTH CAROLINA NATIONAL WEATHER SERVICE NEWPORT/MOREHEAD CITY NC 1100 PM EDT WED MAR 29 2017 NOTE: "FAIR" INDICATES FEW OR NO CLOUDS BELOW 12,000 FEET WITH NO SIGNIFICANT WEATHER AND/OR OBSTRUCTIONS TO VISIBILITY NCZ015>017-031-032-045>047-102-103-300400- NORTH COAST CITY SKY/WX TMP DP RH WIND PRES REMARKS EDENTON CLEAR 51 47 88 CALM 30.17R ELIZABETH CITY PTCLDY 48 46 93 E6 30.17R KITTY HAWK NOT AVBL MANTEO CLEAR 48 46 92 E7 30.17R $$ NCZ045>047-081-094-103-104-300400- CENTRAL COAST CITY SKY/WX TMP DP RH WIND PRES REMARKS FRISCO CLEAR 52 46 80 E6 30.15S $$ NCZ095-097-098-100-101-300400- SOUTHERN COAST CITY SKY/WX TMP DP RH WIND PRES REMARKS BEAUFORT CLEAR 55 52 89 NE8 30.14S CEDAR ISLAND NOT AVBL JACKSONVILLE CLEAR 56 52 86 SE12 30.14R PINEY ISLAND CLEAR N/A N/A N/A NE10 30.15R WILMINGTON CLEAR 59 56 89 E10 30.13R $$ NCZ011>013-027>030-043-044-078>080-089-090>093-098-300400- COASTAL PLAIN CITY SKY/WX TMP DP RH WIND PRES REMARKS AHOSKIE N/A 50 47 91 CALM 30.17R FOG CLINTON PTCLDY 60 56 88 SE3 30.12R ELIZABETHTOWN CLEAR 60 54 79 SE6 30.12R GOLDSBORO CLEAR 59 58 96 E8 30.11R GREENVILLE CLEAR 55 50 82 E6 30.15S HAVELOCK CLEAR 54 49 83 E6 30.16R KENANSVILLE CLEAR 57 52 82 E6 30.14R KINSTON CLEAR 56 52 86 SE7 30.14S NEW BERN CLEAR 53 51 93 E6 30.16R RICHLANDS CLEAR 55 52 89 E3 30.14R ROCKY MOUNT CLEAR 57 53 86 E3 30.13R WASHINGTON CLEAR 51 47 86 E6 30.15S WHITEVILLE CLEAR 60 55 81 E6 30.12R $$ AMZ130-135-150-152-154-156-158-170-250-252-270-ANZ085-086-088-633-658-670-300400- MARINE OBSERVATIONS STATION/POSITION TIME TEMP WIND PRES WAVE SWELL AIR SEA DIR/SP/G HT/PER HT/PER (UTC) (F) (DEG/KT/KT) (MB) (FT/S) (FT/S) CHESAPEAKE LIGHT NOT AVBL 64 E VA BEACH 0250 50 50 60/ 6/ 8 1021.4 5/10 5/10 DUCK 0242 49 51 70/ 10/ 12 1021.0 2 E DUCK 0300 51 N/A 4/ 7 2/11 OREGON INLET 0242 49 57 50/ 6/ 8 1021.3 13E OREGON INLT 0248 50 N/A 5/10 5/10 HATTERAS CG 0242 53 62 50/ 8/ 12 1020.9 DIAMOND BUOY 0250 59 74 40/ 19/ 23 1020.5 6/ 9 3/ 9 CAPE LOOKOUT 0300 59 50/ 21/ 24 1020.3 BEAUFORT LAB 0242 55 63 50/ 5/ 11 1020.0 30 SE NEW RVR IN 0208 61 70/ 16/ 23 1020.1 30 SE NEW RVR IN 0243 64 N/A 5/10 2/11 27 SE WRIGHTSVLE 0208 65 74 80/ 17/ 23 1018.9 5 SE WRIGHTSVLE 0208 60 59 90/ 14/ 19 1019.7 225 S CAPE HAT 0250 70 72 50/ 16/ 17 1018.1 6/10 5/10 41 SE CHARLESTON 0250 71 68 80/ 16/ 17 1017.4 5/10 3/10 $$

USA.gov is the U.S. government's official web portal to all federal, state and local government web resources and services.